Probability
1 0 0 0 0 0 0 0 0 0 0 0 0 0 0 0 0 0 0 0 0 0 0 0 0 0 0 0 0 0 0 0 0 0 0 0 0 0 0 0 0 0 0 0
1 0 0 0 0 0 0 0 0 0 0 0 0 0 0 0 0 0 0 0 0 0 0 0 0 0 0 0 0 0 0 0 0 0 0 0 0 0 0 0 0 1 1 0
1 0 0 0 0 0 0 0 0 0 0 0 0 0 0 0 0 0 0 0 0 0 0 0 0 0 0 0 0 0 0 0 0 0 0 0 0 0 0 0 0 1 2 1
0 0 0 0 0 0 0 0 0 0 0 0 0 0 0 0 0 0 0 0 0 0 0 0 0 0 0 0 0 0 1 1 0 0 0 0 0 0 0 0 0 1 2 2
0 0 0 0 0 0 0 0 0 0 0 0 0 0 0 0 0 0 0 0 0 0 0 0 0 0 0 0 0 1 2 2 1 0 0 0 0 0 0 0 0 0 1 1
0 0 0 0 0 0 0 0 0 0 0 0 0 0 0 0 0 0 0 0 0 0 0 0 0 0 0 0 1 2 3 3 2 1 0 0 0 0 0 0 0 0 0 0
0 0 0 0 0 0 0 0 0 0 0 0 0 0 0 0 0 0 0 0 0 0 0 0 0 0 0 0 1 2 2 2 2 1 1 0 0 0 0 0 0 0 0 0
0 0 0 0 0 0 0 0 0 0 0 0 0 0 0 0 0 0 0 0 0 0 0 0 0 0 0 0 0 1 1 1 2 2 2 1 0 0 0 0 0 0 0 0
0 0 0 0 0 0 0 0 0 0 0 0 0 0 0 0 0 0 0 0 0 0 0 0 0 0 0 0 0 0 0 0 1 2 2 1 0 0 0 0 0 0 0 0
0 0 0 0 0 0 0 0 0 0 0 0 0 0 0 0 0 0 0 0 0 0 0 0 0 0 0 0 0 0 0 0 1 1 1 0 0 0 0 0 0 0 0 1
0 0 0 0 0 0 0 0 0 0 0 0 0 0 0 0 0 0 0 0 0 0 0 0 0 0 0 0 0 0 0 0 0 0 0 0 0 0 0 0 0 0 0 1
0 0 0 0 0 0 0 0 0 0 0 0 0 0 0 0 0 0 0 0 0 0 0 0 0 0 0 0 0 0 0 0 0 0 0 0 0 0 0 0 0 0 0 1
0 0 0 0 0 0 0 0 0 0 0 0 0 0 0 0 0 0 0 0 0 0 0 0 0 0 0 0 0 0 0 0 0 0 0 0 0 0 0 0 0 0 0 0
0 0 0 0 0 0 0 0 0 0 0 0 0 0 0 0 0 0 0 0 0 0 0 0 0 0 0 0 0 0 0 0 0 0 0 0 0 0 0 0 0 0 0 0
0 0 0 0 0 0 0 0 0 0 0 0 0 0 0 0 0 0 0 0 0 0 0 0 0 0 0 0 0 0 0 0 0 0 0 0 0 0 0 0 0 0 0 0
0 0 0 0 0 0 0 0 0 0 0 0 0 0 0 0 0 0 0 0 0 0 0 0 0 0 0 0 0 0 0 0 0 0 0 0 0 0 0 0 0 0 0 0
0 0 0 0 0 0 0 0 0 0 0 0 0 0 0 0 0 0 0 0 0 0 0 0 0 0 0 0 0 0 0 0 0 0 0 0 0 0 0 0 0 0 0 0
0 0 0 0 0 0 0 0 0 0 0 0 0 0 0 0 0 0 0 0 0 0 0 0 0 0 0 0 0 0 0 0 0 0 0 0 0 0 0 0 0 0 0 0
0 0 0 0 0 0 0 0 0 0 0 0 0 0 0 0 0 0 0 0 0 0 0 0 0 0 0 0 0 0 0 0 0 0 0 0 0 0 0 0 0 0 0 0
0 0 0 0 0 0 0 0 0 0 0 0 0 0 0 0 0 0 0 0 0 0 0 0 0 0 0 0 0 0 0 0 0 0 0 0 0 0 0 0 0 0 0 0
0 0 0 0 0 0 0 0 0 0 0 0 0 0 0 0 0 0 0 0 0 0 0 0 0 0 0 0 0 0 0 0 0 0 0 0 0 0 0 0 0 0 0 0
0 0 0 0 0 0 0 0 0 0 0 0 0 0 0 0 0 0 0 0 0 0 0 0 0 0 0 0 0 0 0 0 0 0 0 0 0 0 0 0 0 0 0 0
0 0 0 0 0 0 0 0 0 0 0 0 0 0 0 0 0 0 0 0 0 0 0 0 0 0 0 0 0 0 0 0 0 0 0 0 0 0 0 0 0 0 0 0
0 0 0 0 0 0 0 0 0 0 0 0 0 0 0 0 0 0 0 0 0 0 0 0 0 0 0 0 0 0 0 0 0 0 0 0 0 0 0 0 0 0 0 0
0 0 0 0 0 0 0 0 0 0 0 0 0 0 0 0 0 0 0 0 0 0 0 0 0 0 0 0 0 0 0 0 0 0 0 0 0 0 0 0 0 0 0 0
0 0 0 0 0 0 0 0 0 0 0 0 0 0 0 0 0 0 0 0 0 0 0 0 0 0 0 0 0 0 0 0 0 0 0 0 0 0 0 0 0 0 0 0
Wind_Speed
12 12 18 22 22 13 10 13 14 10 6 9 15 19 17 14 14 16 16 15 15 15 14 11 10 9 9 9 10 11 12 12 10 8 8 8 9 9 9 9 11 12 11 12
11 21 21 16 17 16 13 14 14 7 5 7 12 19 18 18 18 17 18 17 16 15 14 12 10 9 9 10 10 10 11 11 12 10 9 6 7 7 8 8 10 12 12 12
22 12 16 16 18 20 20 19 16 9 3 6 9 17 18 17 17 17 18 18 17 16 16 13 11 10 9 9 9 8 10 11 12 12 8 6 6 5 6 8 8 11 12 12
21 15 14 19 21 21 20 17 14 12 9 8 8 13 14 14 15 17 17 16 17 16 15 14 12 10 9 9 8 8 9 9 9 10 10 12 9 9 9 7 7 8 10 11
16 17 18 21 21 20 12 10 13 13 13 12 11 13 14 10 16 17 17 16 16 15 14 13 12 10 9 8 7 7 7 7 8 9 11 12 11 9 6 6 7 7 7 8
13 9 16 18 16 17 9 8 8 10 10 16 19 17 16 13 16 13 13 14 15 14 13 12 10 8 8 6 6 6 6 7 7 8 9 11 11 10 8 8 6 6 5 6
15 13 9 9 14 16 15 11 8 10 12 15 13 16 16 10 12 14 13 13 12 11 10 9 9 8 7 6 5 5 6 6 6 7 8 9 10 9 9 8 7 6 5 5
17 16 17 14 18 17 22 20 13 11 11 9 10 17 12 6 10 11 11 10 9 9 8 7 6 6 5 5 4 5 5 5 5 6 7 6 7 6 5 6 5 5 4 4
15 14 12 16 14 17 18 20 17 9 4 7 11 12 12 6 9 10 11 11 11 9 7 5 4 4 4 4 4 4 4 4 4 5 5 5 5 5 4 4 4 3 3 2
8 9 8 11 10 17 16 13 10 11 11 14 14 18 14 10 13 13 13 12 10 7 5 4 3 3 2 2 2 2 2 3 3 3 3 2 3 3 3 2 2 2 1 1
8 8 7 10 17 20 17 18 14 11 11 11 14 13 7 12 13 13 13 10 8 6 4 3 2 2 1 1 1 0 1 1 1 1 2 2 2 2 2 2 1 1 0 0
13 8 8 12 10 12 18 20 20 14 12 12 14 14 3 6 7 7 7 6 5 4 3 2 2 1 1 0 1 0 0 0 1 1 2 2 2 2 2 2 2 2 2 1
11 9 9 8 8 10 15 19 20 17 12 12 15 14 3 5 5 5 5 5 4 3 3 2 2 2 1 1 1 0 0 1 1 2 2 3 3 3 3 3 2 2 2 2
9 8 13 16 9 11 16 19 20 19 15 17 21 21 13 9 8 7 6 6 5 4 4 4 3 3 2 1 1 0 1 1 2 2 3 3 3 3 3 3 3 3 2 3
7 9 10 12 9 10 14 17 19 21 21 19 20 23 22 17 13 11 9 8 8 7 7 6 5 4 2 2 1 1 1 1 2 2 3 3 3 3 3 3 3 3 3 3
8 7 7 10 11 11 13 18 20 22 22 23 21 24 22 17 12 11 11 11 11 10 9 7 6 4 4 3 2 2 1 1 2 2 3 2 3 3 3 3 3 3 4 3
8 6 6 10 9 7 14 19 22 22 22 22 25 26 18 16 15 15 13 12 12 11 10 8 7 5 4 3 3 3 2 2 2 3 3 3 3 3 3 3 3 3 3 3
9 8 6 6 7 17 14 11 18 22 24 23 22 21 19 18 15 11 11 12 12 10 9 7 6 4 3 2 2 2 3 3 3 3 2 2 2 2 2 2 3 3 3 2
13 10 7 7 11 13 11 10 14 18 21 21 22 21 19 13 9 10 9 9 9 8 6 5 4 4 2 2 2 3 3 3 3 2 2 2 2 2 2 2 2 2 2 2
12 11 9 8 10 12 12 9 8 11 17 16 18 20 17 12 12 12 6 6 5 4 4 4 4 3 3 2 3 4 3 3 2 2 2 2 2 2 2 1 2 2 2 2
9 10 13 13 12 11 9 4 9 12 12 8 12 16 15 16 12 4 5 5 5 5 5 4 4 3 2 2 3 4 3 2 1 1 2 2 2 2 2 2 2 2 2 3
11 10 11 11 12 13 6 8 12 9 3 3 5 8 8 7 3 4 4 5 6 5 5 5 4 3 2 2 3 4 2 1 1 2 3 2 2 2 2 3 3 2 2 3
11 10 7 10 9 5 5 7 5 3 4 4 3 3 5 5 5 4 4 4 5 5 4 4 5 4 3 2 2 3 1 1 2 3 3 3 3 3 2 2 2 2 2 2
6 4 6 7 9 7 7 5 4 3 3 2 2 3 5 5 6 5 5 5 4 4 4 4 5 4 3 2 3 2 2 1 2 3 3 3 3 3 2 2 1 2 1 1
6 6 6 9 8 6 7 7 5 2 2 2 1 2 4 6 6 5 5 5 4 4 4 4 4 4 3 3 3 3 2 2 3 3 3 3 2 2 2 2 2 2 2 1
7 9 9 9 7 7 6 4 5 4 3 3 3 3 3 5 6 6 5 4 4 4 4 4 4 4 4 3 3 2 2 2 3 3 2 2 2 2 2 2 2 4 4 4
Wind_Direction
190 201 209 207 210 223 213 214 221 223 203 216 236 247 247 244 243 247 248 247 246 248 253 253 250 242 236 231 229 228 226 221 213 208 209 214 221 221 222 223 225 225 223 219
197 220 218 212 210 217 219 222 225 222 210 232 253 258 255 249 245 245 248 247 247 250 251 250 248 241 233 232 230 229 227 223 214 211 208 213 217 221 222 220 224 226 224 223
210 217 205 204 206 213 222 225 224 220 210 239 269 264 249 244 242 244 245 246 248 248 249 249 247 243 237 235 233 230 229 226 220 216 211 210 214 221 219 223 224 224 224 224
224 221 200 204 210 209 224 221 226 223 224 235 227 267 251 238 238 237 238 239 242 243 245 248 250 249 242 241 239 235 232 228 223 214 211 209 212 218 221 220 220 220 219 223
215 209 206 210 213 209 222 203 213 223 233 246 230 253 260 230 239 237 234 233 236 240 242 246 247 249 250 247 241 236 230 226 220 212 212 214 221 227 226 219 220 218 215 219
225 214 215 219 214 208 190 175 204 224 232 242 231 235 260 226 232 235 230 231 235 238 240 243 247 248 252 250 241 234 227 225 218 211 211 213 218 221 221 220 219 219 217 217
217 219 213 204 195 194 193 188 198 208 217 237 222 228 250 235 224 227 228 228 229 232 236 240 242 246 251 250 241 231 225 227 220 213 212 216 221 220 220 222 223 221 219 220
206 215 206 201 203 198 201 203 206 212 222 230 206 231 247 224 223 228 231 229 230 234 235 238 245 251 256 260 253 237 228 228 221 213 213 216 220 221 223 222 221 220 224 228
207 218 198 204 204 201 202 214 226 245 258 249 227 240 253 228 226 224 226 227 231 234 235 241 254 260 262 262 257 246 236 231 225 217 211 208 210 211 215 217 218 224 230 237
215 216 199 196 200 212 214 202 201 215 223 236 241 241 240 207 213 216 220 225 232 233 231 239 250 264 276 282 274 252 238 231 223 213 205 198 197 197 197 193 199 211 233 236
215 214 192 187 202 202 199 205 209 214 225 232 244 245 234 222 210 212 216 219 221 222 223 231 248 265 295 320 308 258 208 214 199 177 169 167 167 164 156 152 149 135 88 19
209 220 222 218 220 226 214 213 210 214 218 228 246 253 154 214 211 209 211 211 214 210 213 219 236 250 268 320 346 354 58 134 136 132 133 126 114 105 102 93 80 73 63 48
190 204 215 214 217 211 218 221 222 227 233 231 237 248 186 194 197 202 213 215 213 210 213 217 224 239 248 258 279 2 45 82 86 99 106 101 96 93 88 77 66 64 63 58
204 215 221 227 221 200 212 218 221 223 230 237 239 251 245 235 235 236 235 234 238 237 231 239 244 247 247 243 237 174 70 71 83 96 100 94 85 84 83 77 67 59 58 58
209 227 231 245 249 230 225 223 223 225 229 237 244 248 252 249 246 245 241 236 236 236 232 229 229 235 233 219 203 167 119 93 105 110 104 94 80 74 74 72 68 63 57 53
209 226 226 243 240 237 242 234 229 231 235 240 249 254 255 259 253 244 235 229 231 233 230 228 223 220 219 211 201 184 157 127 126 123 112 98 90 84 76 67 64 64 58 53
200 202 217 242 234 235 239 231 230 231 232 234 241 248 254 252 244 239 236 231 233 233 227 222 220 216 214 214 196 189 169 142 132 121 108 97 91 86 74 67 69 65 60 55
208 208 219 235 212 234 242 230 228 235 239 236 241 249 246 247 249 246 239 229 229 226 221 221 216 211 204 194 191 171 148 144 141 128 110 98 94 86 76 77 74 65 58 58
211 207 215 216 234 252 259 231 217 226 240 238 239 243 244 243 252 253 241 228 223 216 210 209 201 193 183 181 176 157 151 149 143 134 120 114 111 101 90 81 70 62 64 62
208 209 216 222 232 237 245 228 211 219 247 240 233 237 237 226 240 245 212 197 193 182 176 172 164 158 159 164 154 150 156 160 165 165 149 130 123 118 118 107 90 72 76 69
186 205 217 226 237 249 255 219 167 204 241 242 229 232 230 229 240 226 164 169 166 160 155 150 147 146 152 143 145 153 157 178 191 119 105 106 116 119 122 110 87 81 80 79
198 200 211 217 229 241 222 185 202 228 257 261 244 233 222 219 192 161 162 158 151 151 148 144 139 131 112 120 145 152 159 158 98 105 110 109 101 100 101 100 93 88 96 96
218 215 210 212 228 244 205 213 235 253 238 252 243 212 177 175 183 171 161 152 148 148 143 134 133 126 104 90 122 143 122 91 113 122 118 108 96 91 96 113 115 112 105 96
229 223 220 235 243 239 234 236 240 232 230 239 218 196 176 175 172 164 152 145 140 130 126 122 127 128 111 81 75 82 83 104 135 133 124 117 116 110 101 107 117 114 101 84
220 200 218 239 244 252 246 229 221 205 181 180 164 161 166 160 164 158 148 143 138 130 124 124 131 129 115 96 81 71 81 106 121 123 124 121 117 121 119 99 86 80 56 47
210 210 220 238 225 229 239 191 177 180 190 175 144 127 133 146 148 141 139 135 131 128 123 121 119 117 112 105 89 67 65 107 125 129 125 123 127 128 123 109 83 65 58 51